User: anonymous   Login
Location: Unspecified
(0.0000°N, 0.0000°E)
Time: 20:47:30
(UTC+00:00)
Language:

N. Korean satellite - Orbit

View from above orbital plane
View from above orbital plane
View from above satellite
View from above satellite

Ground track
Ground track

The orbit data is extracted from the following two-line orbital elements,

1 39026U 12072A   20196.41486628  .00000984  00000-0  37190-4 0  9994
2 39026  97.2233 192.4137 0038285 145.8090 214.5627 15.28653073421428
Epoch (UTC): 14 July 2020 09:57:24
Eccentricity: 0.0038285
inclination: 97.2233°
perigee height: 453 km
apogee height: 506 km
right ascension of ascending node: 192.4137°
argument of perigee: 145.8090°
revolutions per day: 15.28653073
mean anomaly at epoch: 214.5627°
orbit number at epoch: 42142

The dashed part of the orbit path shows where the satellite is in the earth's shadow,  

DLR